www.pogodaiklimat.ru

Погода и климат >> Архив погоды >> Россия >> Якутия >> Намцы


ПОГОДА в Намцах

  • Прогноз погоды в Намцах
  • Монитор погоды в Намцах

АРХИВ ПОГОДЫ в Намцах

Время (UTC), дата Ветер
(напр.,м/с)
 
Видим.   Явления Облачность Т
(С)
Тd
(С)
f
(%)
Тe
(С)
Тes
(С)
Комфортность P
(гПа)
Po
(гПа)
Тmin
(С)
Tmax
(С)
R
(мм)
R24
(мм)
S
(см)
06 13.09 З 4 50 км {морось} 10/10 870 м
[Sc]
+11.6 +8.0 79 +9 +9 991.2 980.6
09 13.09 З 4
{13}
50 км 10/10 540 м
[St]
+7.6 +4.1 78 +4 +4 995.4 984.6
12 13.09 З 5
{12}
50 км 10/10 960 м
[Sc]
+6.8 +1.0 66 +3 +3 998.5 987.6 +11.9 0.0
15 13.09 З 3 50 км 10/0
[Ac As]
+5.8 -2.2 56 +3 +3 999.8 988.9
18 13.09 З 3 50 км 8/0
[Ci fib]
+3.0 -5.8 52 -0 -0 1001.6 990.5
21 13.09 З 3 50 км 1/0
[Ci fib]
+0.4 -7.9 54 -4 -4 1003.0 991.8
00 14.09 З 3 50 км 3/0
[Ci fib]
+3.3 -7.5 45 0 +2 1004.6 993.5 +0.3
03 14.09 СЗ 5-10
{10}
50 км 3/0
[Ci fib]
+7.3 -10.3 27 +4 +7 1004.8 993.8
06 14.09 СЗ 3 50 км 1/0
[Ci fib]
+9.3 -9.0 26 +8 +10 1004.3 993.4
09 14.09 ЮЗ 1 50 км ясно +9.1 -7.8 29 +9 +9 1004.4 993.5
12 14.09 Ю 1 50 км ясно +0.2 -3.8 74 -2 -2 1005.4 994.2 +9.6
15 14.09 Ю 1 50 км ясно -2.9 -4.9 86 -5 -5 1005.8 994.4
18 14.09 Ю 1 50 км ясно -4.3 -5.9 89 -7 -7 1006.0 994.6
21 14.09 штиль 0 50 км ясно -6.2 -7.4 91 -7 -7 1006.4 994.9
00 15.09 В 1 50 км 1/0
[Ci fib]
+2.4 -2.2 72 +1 +4 1005.7 994.6 -6.4
03 15.09 ЮВ 3 50 км 3/0
[Ci]
+10.7 -8.6 25 +9 +13 1004.4 993.6
06 15.09 В 4 50 км 4/0
[Ci sp]
+12.9 -6.7 25 +12 +14 1002.7 992.0
09 15.09 В 2 50 км ясно +11.4 -7.4 26 +11 +11 1003.1 992.4
12 15.09 В 1 50 км ясно +5.8 -5.6 44 +5 +5 1004.2 993.2 +13.2
15 15.09 штиль 0 50 км ясно -2.4 -5.8 77 -3 -3 1005.1 993.8
18 15.09 штиль 0 50 км 4/0
[Ac trans]
-4.0 -6.2 85 -5 -5 1005.4 994.0
21 15.09 штиль 0 50 км 6/0
[Ac trans Ci fib]
-3.3 -5.4 85 -4 -4 1005.8 994.4
00 16.09 СЗ 1 50 км 6/0
[Ci sp]
+3.4 -3.3 61 +2 +4 1006.3 995.2 -4.0
03 16.09 С 1 50 км 9/0
[Ac trans Cs]
+7.6 -3.3 46 +7 +12 1006.0 995.1
06 16.09 С 2 50 км 10/0
[Ac As]
+9.8 -5.7 33 +9 +10 1005.8 995.0
09 16.09 СЗ 3 50 км 10/0
[Ac As]
+8.6 -3.0 44 +7 +7 1006.4 995.5
12 16.09 СЗ 4 50 км 10/0
[Ac As]
+5.6 -1.1 62 +2 +2 1006.7 995.7 +9.9
15 16.09 СЗ 3 50 км 10/0
[Ac As]
+4.6 +0.4 74 +1 +1 1006.1 995.1
18 16.09 СЗ 3 50 км 10/0
[Ac As]
+3.7 0.0 77 0 0 1005.7 994.7
21 16.09 З 3 50 км в посл. час дождь 10/0
[Ac As]
+2.7 +0.3 84 -1 -1 1005.7 994.6
00 17.09 СЗ 2 20 км слаб. дождь 10/0
[Ac As]
+3.4 +1.1 85 0 +1 1006.3 995.3 +2.7 0.0
03 17.09 СЗ 2 20 км слаб. дождь 10/0 720 м
[As op]
+5.6 +2.9 83 +3 +4 1006.7 995.7
06 17.09 СЗ 2 20 км слаб. дождь 10/0 800 м
[As op]
+5.7 +4.3 91 +3 +4 1007.1 996.1
09 17.09 СЗ 3 50 км {дождь} 10/10 720 м
[St]
+5.7 +3.6 86 +2 +2 1008.3 997.3
12 17.09 СЗ 2 50 км {дождь} 10/10 750 м
[St]
+5.5 +3.1 85 +3 +3 1008.8 997.8 +6.9 4
15 17.09 СЗ 2 50 км 10/10 800 м
[St]
+4.7 +1.7 81 +2 +2 1008.7 997.7
18 17.09 З 2 20 км слаб. дождь со снегом 10/0 1000 м
[As op]
+4.3 +0.6 77 +2 +2 1008.6 997.5
21 17.09 ЮЗ 1 10 км слаб. дождь со снегом 10/10 120 м
[Frnb Ns]
+1.5 +0.7 94 -0 -0 1009.7 998.5
00 18.09 Ю 1 4000 м слаб. дождь со снегом 10/0 300 м
[As op]
+0.7 +0.1 96 -1 -1 1010.8 999.5 +0.7 5
03 18.09 ЮЗ 1 50 км {снег, дождь} 10/9 360 м
[Frnb Ac As]
+2.6 +1.0 89 +1 +1 1011.8 1000.6
06 18.09 Ю 1 50 км {снег, дождь} 10/10 360 м
[St]
+3.2 +1.7 90 +2 +2 1013.1 1001.9
09 18.09 ЮЗ 1 50 км 10/10 400 м
[St]
+2.9 +0.8 86 +1 +1 1014.5 1003.3
12 18.09 штиль 0 50 км 10/10 500 м
[St]
+2.5 +1.2 91 +1 +1 1015.3 1004.1 +3.6 0.6
15 18.09 штиль 0 50 км 10/10 480 м
[St]
+2.3 +1.3 93 +1 +1 1015.4 1004.2
18 18.09 Ю 1 50 км 10/10 400 м
[St]
+1.7 +1.2 96 -0 -0 1015.3 1004.1
21 18.09 Ю 1 50 км 10/8 240 м
[Frnb Ac As]
+1.7 +1.2 96 -0 -0 1015.3 1004.1
00 19.09 Ю 2 50 км 10/10 240 м
[St]
+2.9 +1.3 89 -0 -0 1015.4 1004.2 +1.6
03 19.09 В 3 50 км 9/9 630 м
[Cu med, cong]
+6.3 +1.3 70 +3 +4 1014.2 1003.1
06 19.09 В 4 50 км 9/3 1000 м
[Cu med, cong Ac trans Cs]
+7.6 +0.6 61 +5 +5 1012.5 1001.6
09 19.09 В 4 50 км 10/0 1500 м
[Ac und]
+6.5 +0.9 67 +3 +3 1012.3 1001.3
12 19.09 В 3 50 км 10/0
[Ac As]
+5.4 +0.5 71 +2 +2 1001.2 1001.2 +7.8
15 19.09 В 3 50 км 10/0
[Ac As]
+4.7 +0.3 73 +1 +1 1011.5 1000.4
18 19.09 СВ 3 20 км слаб. дождь 10/0
[Ac As]
+3.6 +2.1 90 -0 -0 1010.4 999.3
21 19.09 СВ 3 10 км слаб. дождь 10/0
[Ac As]
+3.2 +1.9 91 -1 -1 1010.3 999.1
00 20.09 С 2 10 км слаб. дождь 10/10 240 м
[Frnb]
+2.9 +2.1 94 -0 -0 1010.9 999.7 +1.9 7
03 20.09 С 2 4000 м слаб. ливневой снег {дождь} 10/10 270 м
[Frnb]
+2.1 +1.3 94 -1 -1 1012.4 1001.2

 

Местоположение метеостанции Намцы (Якутия, Россия): широта 62.72 долгота 129.60 высота над уровнем моря 90 м.

В архиве по умолчанию представлена погода в Намцах за последнюю неделю. Архивные данные за месяц целиком и за предыдущие месяцы, начиная с января 2011 года, Вы можете получить, выбрав интересующий диапазон дат из раскрывающегося списка и нажав кнопку "Ввод!".


*Определитесь, кто Вы:
робот инопланетянин человек

Внимание! Время в таблицах - всемирное. Для получения местного времени необходимо прибавить поправку, которая равна 9 ч.

Смотрите также архив погоды в соседних городах и на ближайших метеорологических станциях:

Погода в Якутске (Якутия, Россия) (80 км)
Погода в Батамае (Якутия, Россия) (90 км)
Погода в Верхоянском Перевозе (Якутия, Россия) (138 км)
Погода в Покровске (Якутия, Россия) (140 км)
Погода в Бердигестяхе (Якутия, Россия) (143 км)
Погода в Сеген-Кюеле (Якутия, Россия) (147 км)
Погода в Чурапче (Якутия, Россия) (173 км)
Погода в Сангаре (Якутия, Россия) (175 км)
Погода в Ытык-Кюёле (Якутия, Россия) (204 км)
Погода в Сого-Хае (Якутия, Россия) (235 км)

Пояснения к столбцам:

Ветер - указаны скорость ветра в м/с - средняя за 10 мин, порывы в срок и между сроками (в фигурных скобках) и направление, откуда дует ветер: С - северный, СВ - северо-восточный, В - восточный, ЮВ - юго-восточный, Ю - южный, ЮЗ - юго-западный, З - западный, СЗ - северо-западный.
Видимость - горизонтальная дальность видимости в метрах или километрах. При видимости от 1 до 10 км при отсутствии осадков обычно наблюдается дымка, при ухудшении видимости до 1 км и менее - туман. В сухую погоду видимость может ухудшаться дымом, пылью или мглою.
Явления - указаны атмосферные явления, наблюдавшиеся в срок или в последний час перед сроком; фигурными скобками обозначены явления, наблюдавшиеся между сроками (за 1-3 часа до срока); квадратными скобками обозначены град или гололедные отложения с указанием их диаметра в мм.
Облачность - указаны через наклонную черту общая и нижняя облачность в баллах и высота нижней границы облаков в метрах; квадратными скобками обозначены формы облаков: Ci - перистые, Cs - перисто-слоистые, Cc - перисто-кучевые, Ac - высококучевые, As - высокослоистые, Sc - слоисто-кучевые, Ns - слоисто-дождевые, Cu - кучевые, Cb - кучево-дождевые. Подробнее классификацию облаков см. в Атласе облаков (PDF).
T - Температура воздуха - температура, измеренная на высоте 2 м над землей.
Td - Температура точки росы - температура, при понижении до которой содержащийся в воздухе водяной пар достигнет насыщения.
f - Относительная влажность воздуха - влажноcть воздуха, измеренная на высоте 2 м над землей.
Te - Эффективная температура - температура, которую ощущает одетый по сезону человек в тени. Характеристика душности погоды. При расчете учитывается влияние влажности воздуха и скорости ветра на теплоощущения человека.
Tes - Эффективная температура на солнце - температура, которую ощущает человек, с поправкой на солнечный нагрев. Характеристика знойности погоды. Зависит от высоты солнца над горизонтом, облачности и скорости ветра. Ночью, в пасмурную погоду, а также при ветре 12 м/с и более поправка равна нулю.
P - Атмосферное давление - приведенное к уровню моря атмосферное давление.
Po - Атмосферное давление - измеренное на уровне метеостанции атмосферное давление.
Tmin - Минимальная температура - минимум температуры воздуха на высоте 2 м над землей.
Tmax - Максимальная температура - максимум температуры воздуха на высоте 2 м над землей.
R - Количество осадков - Количество выпавших осадков за период времени, мм. При наведении курсора мыши на число - период времени, за который выпало указанное количество осадков.
R24 - Количество осадков - Количество выпавших осадков за 24 часа, мм.
S - Снежный покров - Высота снежного покрова, см. При наведении курсора мыши на число - состояние снежного покрова и степень покрытия местности в баллах.